Weather History for Hayward, WI

Change the Weather History Date:

Sunday, October 12, 2014

  Actual Average Record
Temperature  
Mean Temperature 46 °F -  
Max Temperature 62 °F 61 °F 77 °F (2008)
Min Temperature 30 °F 37 °F 16 °F (2012)
Degree Days  
Heating Degree Days 20    
Moisture  
Dew Point 34 °F    
Average Humidity 59    
Maximum Humidity 96    
Minimum Humidity 32    
Precipitation  
Precipitation 0.00 in - - ()
Sea Level Pressure  
Sea Level Pressure 29.91 in    
Wind  
Wind Speed 9 mph (South)    
Max Wind Speed 25 mph    
Max Gust Speed 32 mph    
Visibility 10 miles    
Events      
Averages and records for this station are not official NWS values.
T = Trace of Precipitation, MM = Missing Value Source: NWS Daily Summary

Daily Weather History Graph

Daily Weather History Graph

Search for Another Location

Airport:

Trip Planner

Search our weather history database for the weather conditions in past years. The results will help you decide how hot, cold, wet, or windy it might be!

Date:

Astronomy

Oct. 12, 2014 Rise Set
Actual Time 7:18 AM CDT 6:25 PM CDT
Civil Twilight 6:48 AM CDT 6:55 PM CDT
Nautical Twilight 6:14 AM CDT 7:29 PM CDT
Astronomical Twilight 5:39 AM CDT 8:04 PM CDT
Moon 9:32 PM CDT (10/12) 11:51 AM CDT (10/12)
Length of Visible Light 12h 06m
Length of Day
11h 06m
Waning Gibbous, 79% of the Moon is Illuminated
Oct 12
Waning Gibbous
Oct 15
Last Quarter
Oct 23
New
Oct 30
First Quarter
Nov 6
Full

Hourly Weather History & Observations

Time (CDT) Temp. Windchill Dew Point Humidity Pressure Visibility Wind Dir Wind Speed Gust Speed Precip Events Conditions
12:53 AM 43.0 °F 39.5 °F 32.0 °F 65% 30.02 in 10.0 mi SSW 5.8 mph - N/A   Clear
1:53 AM 42.1 °F 37.1 °F 33.1 °F 70% 30.00 in 10.0 mi SSW 8.1 mph - N/A   Clear
2:53 AM 39.9 °F 37.8 °F 33.1 °F 77% 30.00 in 10.0 mi SSW 3.5 mph - N/A   Clear
3:53 AM 39.0 °F 35.7 °F 33.1 °F 79% 29.98 in 10.0 mi SW 4.6 mph - N/A   Clear
4:53 AM 39.9 °F 35.8 °F 33.1 °F 77% 29.98 in 10.0 mi SSW 5.8 mph - N/A   Clear
5:53 AM 33.1 °F - 30.0 °F 89% 29.98 in 10.0 mi Calm Calm - N/A   Clear
6:53 AM 30.9 °F - 30.0 °F 96% 29.97 in 10.0 mi Calm Calm - N/A   Clear
7:53 AM 33.1 °F - 30.9 °F 92% 29.97 in 10.0 mi Calm Calm - N/A   Clear
8:53 AM 45.0 °F 39.7 °F 35.1 °F 68% 29.96 in 10.0 mi South 10.4 mph - N/A   Clear
9:53 AM 48.0 °F - 35.1 °F 61% 29.95 in 10.0 mi South 12.7 mph - N/A   Clear
10:53 AM 53.1 °F - 35.1 °F 50% 29.93 in 10.0 mi South 19.6 mph 26.5 mph N/A   Clear
11:53 AM 55.0 °F - 34.0 °F 45% 29.92 in 10.0 mi South 25.3 mph 32.2 mph N/A   Clear
12:53 PM 57.0 °F - 34.0 °F 42% 29.89 in 10.0 mi SSE 20.7 mph 27.6 mph N/A   Clear
1:53 PM 59.0 °F - 30.9 °F 35% 29.86 in 10.0 mi South 17.3 mph 25.3 mph N/A   Clear
2:53 PM 60.1 °F - 30.9 °F 33% 29.85 in 10.0 mi South 16.1 mph 23.0 mph N/A   Clear
3:53 PM 61.0 °F - 30.9 °F 32% 29.83 in 10.0 mi South 15.0 mph 20.7 mph N/A   Clear
4:53 PM 59.0 °F - 30.9 °F 35% 29.83 in 10.0 mi South 10.4 mph 23.0 mph N/A   Scattered Clouds
5:53 PM 57.0 °F - 32.0 °F 39% 29.84 in 10.0 mi South 10.4 mph - N/A   Overcast
6:53 PM 55.0 °F - 32.0 °F 42% 29.86 in 10.0 mi South 9.2 mph - N/A   Mostly Cloudy
7:53 PM 54.0 °F - 35.1 °F 49% 29.86 in 10.0 mi South 9.2 mph - N/A   Overcast
8:53 PM 54.0 °F - 36.0 °F 51% 29.86 in 10.0 mi South 9.2 mph - N/A   Overcast
9:53 PM 53.1 °F - 36.0 °F 52% 29.86 in 10.0 mi South 8.1 mph 17.3 mph 0.00 in   Overcast
10:22 PM 52.0 °F - 37.0 °F 57% 29.84 in 10.0 mi South 10.4 mph - N/A   Overcast
10:53 PM 53.1 °F - 37.9 °F 57% 29.85 in 10.0 mi SSW 9.2 mph - N/A   Overcast
11:46 PM 52.0 °F - 41.0 °F 66% 29.83 in 10.0 mi South 10.4 mph - N/A   Overcast
11:53 PM 52.0 °F - 41.0 °F 66% 29.85 in 10.0 mi South 10.4 mph - N/A   Overcast